User: anonymous   Login
Location: Unspecified
(0.0000°N, 0.0000°E)
Time: 22:18:09
(UTC+00:00)
Language:

TBA - TO BE ASSIGNED - Orbit

View from above orbital plane
View from above orbital plane
View from above satellite
View from above satellite

Ground track
Ground track

The orbit is defined by the following mean orbital elements,

1 67454U          26145.35028406 +.00000000 +00000-0 +66363-3 0 00002
2 67454  43.0030 132.5449 0002016 281.2248  78.8377 15.27596230    02
Epoch (UTC): 25 May 2026 08:24:24
Eccentricity: 0.0002016
inclination: 43.0030°
perigee height: 482 km
apogee height: 484 km
right ascension of ascending node: 132.5449°
argument of perigee: 281.2248°
revolutions per day: 15.27596230
mean anomaly at epoch: 78.8377°

The dashed part of the orbit path shows where the satellite is in the earth's shadow,  

DLR